Dewpoint
12 12 12 11 11 11 10 8 9 9 10 9 9 8 7 7 7 7 7 8 8 9 10 10 10 10 9 7 5 8 10 10 10 10 10 10 10 10 11 10 10 9 9
12 12 12 12 11 10 9 9 9 10 9 9 9 8 8 8 7 8 9 9 10 11 10 11 11 11 10 8 8 10 10 10 10 10 10 10 9 9 8 8 9 9 9
12 12 11 10 9 8 10 10 9 9 9 9 8 8 9 10 10 10 10 10 9 9 10 12 11 11 11 8 10 10 11 10 10 10 9 9 8 8 7 7 6 8 9
13 12 11 10 8 10 10 9 8 8 9 10 10 10 10 10 10 10 10 10 10 11 12 11 11 11 10 10 10 10 10 10 10 9 9 8 8 7 5 0 2 5 7
12 12 11 9 9 10 10 9 8 9 10 10 10 10 10 11 11 10 9 10 11 11 11 10 10 10 10 10 10 10 10 10 9 9 8 6 4 -2 -6 -7 -4 -1 3
11 11 9 9 10 10 9 9 9 10 10 9 10 10 10 10 11 10 10 11 11 11 11 10 10 10 10 10 10 10 10 9 8 8 5 -2 -6 -7 -8 -9 -11 -10 -3
11 9 9 10 10 9 8 9 10 10 9 10 10 10 10 10 10 10 10 10 11 11 10 10 9 9 9 9 9 9 7 6 1 -4 -5 -2 -2 -2 -3 -3 -3 -4 -5
10 9 10 10 9 9 9 9 10 9 9 10 10 9 9 9 10 10 9 10 10 10 10 9 9 8 8 7 6 4 1 0 -1 -2 -1 -1 -2 -1 -1 -2 -3 -3 -1
10 9 9 8 8 8 9 9 9 9 10 10 10 9 9 8 8 8 8 9 9 8 9 8 7 7 6 5 4 3 1 2 0 -2 -2 -2 -1 -0 -1 0 -1 -2 -3
10 9 8 8 8 9 10 9 9 9 9 9 9 8 8 7 7 8 8 8 7 7 7 7 7 7 7 4 4 3 3 2 2 1 0 0 1 3 1 1 -0 -2 -8
10 8 8 8 8 9 10 9 10 10 10 9 7 7 7 7 7 7 7 7 7 7 7 6 7 6 6 6 5 4 4 3 -1 -7 -9 -7 -5 -1 -2 -2 -3 -4 -4
10 9 9 9 9 9 10 10 10 10 10 9 8 7 6 5 6 7 7 7 7 6 5 6 5 5 5 5 4 4 3 2 -5 -10 -13 -11 -8 -4 -4 -9 -11 -11 -9
11 10 10 10 9 10 10 10 10 10 10 9 8 7 6 5 5 6 5 6 6 6 5 5 5 5 5 4 4 3 2 -1 -9 -12 -14 -11 -9 -10 -12 -13 -14 -15 -15
11 11 10 10 10 10 10 10 10 10 10 10 9 8 6 5 6 5 4 4 4 3 4 4 4 4 4 4 3 2 -0 -6 -11 -15 -14 -10 -10 -13 -14 -16 -16 -14 -12
11 11 11 11 10 10 10 10 10 10 10 10 9 8 7 7 7 7 6 4 3 3 2 1 1 2 2 2 -0 -2 -6 -12 -16 -16 -13 -11 -12 -14 -15 -15 -14 -11 -10
11 10 11 10 10 10 10 10 10 10 10 10 9 8 7 7 7 7 7 4 2 2 1 0 -1 -2 -4 -4 -6 -10 -13 -14 -15 -14 -12 -13 -14 -16 -15 -13 -11 -11 -12
11 11 10 10 10 10 10 10 10 10 10 10 9 8 7 7 7 7 7 5 2 -0 -2 -3 -3 -4 -6 -10 -11 -12 -13 -14 -14 -13 -13 -14 -17 -15 -12 -11 -12 -13 -13
11 11 11 11 10 10 10 10 10 10 10 9 9 8 8 7 7 7 6 4 1 -2 -5 -5 -4 -3 -4 -8 -10 -12 -13 -13 -13 -13 -15 -18 -16 -13 -11 -13 -13 -13 -14
10 10 10 9 10 9 9 8 8 7 8 8 6 7 8 7 7 7 7 4 -1 -4 -7 -6 -5 -4 -5 -7 -9 -12 -13 -13 -13 -13 -17 -17 -13 -12 -12 -13 -13 -14 -15
10 10 9 9 9 8 7 7 6 6 7 6 6 6 7 7 7 7 6 4 -2 -7 -7 -7 -8 -6 -7 -8 -10 -12 -13 -13 -13 -15 -17 -14 -12 -13 -13 -13 -14 -15 -15
9 9 9 9 8 8 8 7 7 7 7 7 7 7 7 7 7 6 6 5 2 -3 -7 -9 -10 -9 -8 -8 -10 -11 -13 -13 -14 -16 -16 -13 -13 -13 -13 -14 -15 -15 -16
9 9 9 8 8 8 8 8 8 8 7 7 7 7 6 7 6 6 6 5 3 -1 -7 -9 -9 -9 -9 -9 -10 -12 -12 -14 -15 -16 -13 -13 -12 -13 -14 -14 -15 -16 -17
8 8 8 8 8 8 8 8 8 7 7 7 6 6 6 6 5 5 5 5 3 -2 -6 -7 -4 -6 -1 -1 -3 -9 -12 -14 -16 -13 -12 -13 -13 -14 -14 -15 -16 -18 -24
8 8 8 8 7 7 7 7 7 6 6 6 6 5 5 5 4 4 3 2 0 -2 -3 -6 -4 -0 -1 -3 -4 -8 -13 -14 -13 -12 -12 -14 -14 -14 -15 -16 -18 -26 -33
8 7 7 7 7 6 6 6 6 6 5 5 4 4 3 3 2 2 1 0 -1 -3 -3 -2 -2 -2 -3 -5 -9 -13 -12 -10 -12 -12 -13 -14 -14 -15 -16 -19 -24 -30 -32
5 7 7 6 5 5 5 5 5 5 5 4 3 2 2 1 0 -0 -1 -1 -2 -3 -2 -2 -3 -5 -6 -6 -6 -7 -8 -9 -13 -13 -14 -14 -15 -16 -20 -24 -27 -29 -30
Wind_Speed
28 29 30 28 26 25 22 24 19 18 16 20 21 18 16 13 11 11 13 12 11 10 7 10 11 10 11 12 17 20 20 20 19 19 20 20 21 22 22 22 20 18 19
27 31 29 27 26 25 23 20 19 19 20 19 16 14 12 11 11 9 10 9 7 6 5 6 14 15 14 16 18 19 20 20 18 17 18 17 15 14 14 16 17 17 16
27 29 27 27 28 24 23 24 22 21 21 19 17 16 14 12 9 8 7 8 8 7 4 9 12 14 18 21 22 21 19 16 15 15 15 13 12 12 13 12 12 11 10
27 28 27 29 28 24 25 25 24 24 23 22 21 18 13 10 9 9 9 8 6 9 16 13 12 17 23 26 21 18 14 14 15 14 11 9 8 9 10 9 8 7 5
26 30 32 31 27 26 25 24 23 23 26 24 21 19 20 19 15 15 12 9 11 19 22 26 23 24 21 20 18 15 15 13 10 8 7 7 8 9 9 8 7 7 6
29 32 32 28 27 28 27 26 27 27 25 24 23 20 18 18 21 19 16 13 21 26 32 31 30 28 23 21 16 12 9 8 6 5 6 7 8 9 9 9 8 8 7
31 33 30 28 30 29 27 29 30 29 27 23 24 25 22 24 23 26 28 30 35 32 30 23 23 18 14 11 10 9 6 5 5 6 8 8 10 10 11 11 10 8 7
33 32 31 31 32 30 30 32 31 30 26 26 27 24 19 18 18 19 19 20 21 20 17 16 12 9 7 7 6 6 6 6 7 6 7 8 10 12 14 15 13 9 8
35 33 32 32 32 32 32 33 32 29 29 27 26 19 16 10 19 14 14 16 18 16 14 11 9 9 9 8 6 5 3 5 6 5 5 8 11 13 15 14 15 13 11
36 34 34 34 33 33 33 33 31 29 26 27 29 24 20 22 25 16 15 15 15 15 15 13 12 10 9 8 7 7 4 1 6 6 6 8 10 8 10 12 12 12 11
37 36 35 35 34 33 33 33 32 30 27 25 25 24 19 17 22 22 25 21 18 16 15 14 14 13 12 11 10 10 7 4 2 2 1 2 4 5 8 9 9 9 11
40 38 37 37 35 35 35 34 32 29 29 26 24 22 19 19 21 23 19 25 23 19 17 16 15 14 13 11 10 9 10 6 5 5 4 2 2 2 6 9 9 8 8
43 43 41 40 39 38 36 35 33 31 30 28 26 25 20 17 14 19 17 24 27 24 22 21 19 17 16 14 13 12 12 8 7 7 6 5 5 5 7 7 6 7 7
46 45 43 42 40 40 38 36 35 33 32 28 25 27 23 21 20 16 17 18 20 21 24 23 23 22 21 18 17 16 13 11 9 10 8 7 6 5 6 5 5 6 6
48 44 43 43 42 41 40 38 36 36 34 30 28 28 27 25 22 19 17 17 18 19 22 23 22 24 23 21 20 17 15 13 13 11 9 8 6 6 5 5 5 5 6
46 46 46 45 42 42 41 39 38 37 35 34 32 32 30 27 24 24 20 18 20 20 19 21 21 20 22 21 22 17 15 13 13 11 10 9 8 6 5 5 5 5 5
50 50 49 47 47 48 44 43 41 40 39 38 36 35 32 30 28 23 22 21 21 21 20 17 18 19 20 22 22 18 16 15 13 12 12 9 7 6 6 6 5 4 4
41 44 46 49 48 52 48 46 45 42 39 38 39 38 36 34 31 26 23 22 23 22 22 20 19 19 20 21 20 20 18 17 14 13 11 9 9 7 6 6 6 6 6
37 38 44 46 47 46 36 32 29 31 34 34 36 37 37 35 31 30 27 25 25 24 24 22 20 19 20 22 22 22 20 18 15 13 12 11 9 8 7 7 8 8 8
36 37 35 39 35 36 41 38 36 35 36 25 29 28 30 32 32 32 28 24 24 23 24 23 21 21 21 22 22 22 22 21 16 15 14 11 10 9 8 9 9 9 11
35 33 35 39 40 39 40 42 39 41 41 40 40 37 37 36 36 32 30 30 30 26 25 23 22 23 24 23 25 23 22 19 18 17 15 13 11 10 10 11 10 11 13
33 34 33 38 38 36 33 36 39 36 36 38 39 39 37 35 34 34 33 33 31 28 27 26 25 23 22 20 21 23 22 23 20 18 16 15 12 12 11 11 12 13 15
36 36 34 33 35 35 36 37 36 34 35 36 37 37 34 34 35 33 35 35 34 33 30 27 28 27 27 24 19 24 23 19 18 13 15 15 13 12 13 13 13 14 16
39 35 38 37 36 35 38 38 37 37 35 35 36 35 34 33 33 33 33 31 32 34 33 32 27 27 26 20 18 21 21 20 18 16 14 14 14 14 15 14 15 15 15
42 41 39 40 40 40 39 40 37 35 34 35 34 33 32 32 32 32 30 30 29 28 29 29 25 24 21 18 20 21 22 21 20 18 16 14 16 16 15 16 16 15 15
42 43 42 41 39 40 41 41 39 37 35 35 33 32 31 30 29 27 26 26 26 28 27 26 25 23 23 23 23 20 17 19 20 18 17 17 15 14 11 13 14 13 11
Wind_Direction
175 167 162 159 160 170 171 166 170 177 169 155 149 147 142 144 143 140 132 128 130 132 143 164 159 148 129 119 118 116 113 108 107 105 102 97 96 94 88 81 73 62 63
179 168 167 169 174 182 177 175 169 162 163 164 170 164 155 156 147 145 140 133 124 125 82 168 160 155 144 128 130 125 119 115 112 110 109 102 97 88 77 69 67 64 61
177 171 176 173 178 181 166 165 165 163 157 156 151 150 148 145 145 151 158 151 143 143 152 195 169 163 147 131 130 125 121 114 106 105 101 93 82 72 58 45 50 71 71
187 186 184 178 182 172 170 170 169 160 157 152 146 144 145 141 139 139 144 142 158 149 121 97 146 144 132 131 126 121 123 116 112 106 96 81 64 46 27 17 32 49 57
191 190 185 185 180 175 174 173 165 164 155 149 145 137 129 126 128 118 115 113 102 137 121 109 115 123 122 119 116 117 112 110 108 97 71 48 31 23 14 7 5 4 359
187 189 187 184 178 177 176 170 167 163 160 154 146 138 137 132 120 113 104 116 125 133 136 133 131 123 116 114 121 122 118 112 97 67 40 38 40 39 34 27 21 14 7
191 194 189 183 182 183 180 176 174 169 162 160 152 142 137 135 130 118 114 123 130 132 132 132 131 131 125 126 127 120 112 95 78 73 68 60 51 44 38 31 24 21 18
196 196 192 189 188 185 183 182 180 172 169 162 157 153 131 138 145 141 139 139 136 137 140 143 143 154 145 148 148 128 98 90 89 74 62 42 28 20 17 19 20 21 23
199 197 195 194 193 192 190 187 185 186 178 174 168 164 149 169 160 161 155 150 154 158 160 181 178 178 180 180 166 147 158 107 76 59 40 26 29 19 20 29 25 25 40
200 199 197 198 198 197 196 193 190 194 197 185 182 178 180 182 177 170 180 176 176 175 174 174 178 194 205 202 190 203 206 127 90 74 47 42 61 65 47 36 35 24 24
202 202 201 201 203 202 200 198 196 198 200 200 198 190 187 179 192 186 184 194 190 187 185 191 193 189 203 219 232 228 237 241 313 334 330 9 9 23 4 14 17 24 28
202 205 205 205 205 205 203 203 204 205 203 206 207 201 202 196 197 201 198 196 202 200 200 204 202 205 209 218 237 236 253 251 269 271 252 241 329 341 329 330 339 346 3
206 205 207 207 207 207 206 208 209 211 210 210 209 209 207 206 216 210 210 199 198 206 210 214 213 215 216 219 225 228 254 271 268 260 260 260 272 291 303 316 329 339 348
208 209 208 210 209 210 210 211 214 216 217 214 213 213 219 226 233 225 226 217 200 207 215 220 222 222 225 227 233 239 254 257 252 253 260 271 293 294 293 295 308 321 334
211 214 215 214 212 214 215 216 217 218 219 217 217 219 224 227 230 232 228 230 228 221 222 223 223 230 235 236 241 243 244 240 235 242 259 270 276 276 271 278 289 304 314
215 219 220 219 220 219 219 220 220 221 220 220 218 221 222 224 228 235 230 229 229 234 231 232 233 236 232 229 237 234 236 236 235 244 253 258 259 255 258 267 277 288 298
221 216 222 222 223 223 224 223 222 221 220 220 220 221 226 228 233 236 230 228 230 232 233 235 231 230 229 224 234 234 233 235 237 237 242 249 245 248 261 270 275 285 296
230 228 233 226 224 221 224 225 227 224 221 221 222 220 222 227 231 236 234 229 228 231 232 235 231 226 225 221 226 228 229 231 231 236 238 235 246 254 267 277 288 295 300
235 235 227 231 224 220 219 229 230 225 224 223 219 216 219 222 225 235 236 229 227 230 231 232 232 219 218 218 219 219 225 233 229 236 229 234 248 257 263 272 278 287 297
232 224 232 230 222 232 233 239 238 245 245 253 248 242 233 225 227 232 226 228 232 230 231 228 225 222 217 216 217 221 214 226 230 229 232 234 243 251 257 265 275 286 292
229 225 227 226 220 223 232 235 235 233 235 234 232 233 231 232 231 225 228 228 226 226 229 227 223 219 217 217 220 218 217 225 224 229 233 240 245 250 255 266 277 282 290
225 222 225 223 221 223 223 230 225 226 227 227 228 223 221 224 228 229 230 230 231 227 226 223 223 223 225 226 225 222 219 217 220 227 229 237 242 251 259 269 279 285 289
225 220 219 222 224 225 221 221 219 217 222 224 222 221 223 225 228 231 233 234 230 218 215 229 229 222 230 231 226 227 225 225 228 230 232 238 243 254 265 272 278 282 286
225 221 222 219 217 218 219 217 212 214 219 220 222 225 226 228 226 225 225 224 221 219 219 215 221 233 230 218 222 230 229 219 225 229 230 234 249 257 265 274 281 284 287
217 218 220 219 217 216 215 216 217 216 220 222 223 224 227 226 226 226 224 223 222 222 224 233 234 234 211 198 211 209 211 220 224 227 232 242 253 260 270 275 277 282 284
216 218 215 216 216 212 214 220 218 219 219 218 218 220 220 220 224 226 224 222 219 224 226 221 209 193 192 196 199 204 216 220 224 231 234 241 254 263 273 267 272 277 276
Height
1558 1563 1568 1570 1573 1575 1579 1582 1585 1587 1590 1593 1594 1597 1598 1600 1601 1601 1603 1604 1605 1606 1608 1609 1609 1611 1613 1614 1614 1616 1617 1617 1618 1620 1619 1620 1620 1620 1620 1619 1620 1620 1619
1557 1562 1566 1570 1573 1575 1579 1582 1585 1587 1590 1593 1595 1597 1599 1601 1602 1604 1604 1603 1605 1607 1607 1609 1610 1610 1612 1616 1617 1618 1619 1619 1620 1622 1622 1622 1623 1623 1623 1622 1622 1622 1621
1557 1561 1564 1569 1571 1574 1579 1582 1585 1587 1590 1593 1596 1598 1600 1601 1602 1604 1605 1605 1605 1606 1607 1607 1609 1611 1612 1615 1618 1620 1621 1622 1623 1625 1625 1625 1625 1625 1625 1624 1623 1623 1623
1557 1560 1563 1566 1569 1575 1578 1581 1584 1587 1590 1594 1596 1599 1601 1602 1603 1605 1606 1607 1606 1606 1608 1609 1611 1612 1614 1616 1618 1621 1623 1624 1625 1626 1627 1627 1626 1626 1626 1626 1624 1623 1622
1555 1558 1560 1564 1570 1574 1577 1580 1584 1587 1590 1594 1597 1600 1603 1604 1606 1607 1608 1608 1608 1609 1612 1612 1615 1617 1618 1618 1621 1623 1625 1627 1627 1628 1629 1628 1627 1627 1626 1626 1625 1623 1622
1553 1556 1559 1565 1569 1573 1576 1580 1583 1587 1591 1593 1597 1602 1605 1608 1610 1610 1610 1611 1611 1611 1615 1615 1616 1618 1623 1621 1623 1625 1627 1628 1629 1628 1629 1629 1628 1628 1626 1626 1625 1623 1622
1551 1554 1560 1564 1568 1571 1575 1579 1582 1586 1589 1594 1596 1602 1607 1610 1612 1614 1614 1614 1613 1616 1618 1620 1620 1622 1624 1625 1626 1626 1627 1628 1628 1629 1628 1629 1628 1628 1627 1626 1625 1624 1622
1548 1553 1558 1561 1565 1569 1573 1576 1581 1584 1588 1593 1596 1601 1607 1613 1614 1616 1618 1619 1620 1621 1622 1623 1623 1624 1625 1626 1626 1627 1628 1629 1629 1630 1629 1629 1628 1627 1625 1626 1625 1623 1622
1546 1551 1556 1559 1563 1567 1570 1575 1579 1583 1585 1590 1596 1599 1604 1608 1613 1617 1618 1620 1621 1622 1623 1624 1624 1625 1626 1627 1627 1626 1629 1630 1629 1630 1630 1629 1627 1626 1625 1624 1623 1622 1621
1543 1549 1553 1557 1561 1565 1569 1573 1578 1581 1585 1587 1592 1595 1599 1602 1606 1614 1617 1619 1621 1622 1622 1623 1624 1625 1625 1626 1627 1628 1629 1629 1628 1629 1629 1628 1628 1627 1625 1624 1624 1622 1621
1540 1545 1550 1554 1558 1562 1567 1572 1576 1579 1584 1587 1589 1592 1596 1600 1603 1606 1610 1615 1618 1619 1620 1622 1623 1624 1625 1626 1626 1626 1626 1627 1628 1629 1629 1629 1628 1627 1625 1624 1624 1622 1621
1535 1541 1546 1550 1554 1559 1564 1569 1574 1577 1581 1585 1589 1592 1594 1596 1599 1602 1605 1610 1614 1616 1618 1620 1621 1622 1623 1623 1623 1624 1624 1626 1626 1627 1627 1627 1627 1626 1625 1624 1623 1622 1620
1529 1534 1539 1544 1549 1555 1561 1566 1570 1574 1578 1582 1586 1589 1592 1595 1598 1600 1602 1604 1607 1611 1613 1615 1617 1619 1620 1620 1621 1622 1622 1623 1624 1624 1624 1624 1625 1625 1624 1623 1622 1621 1620
1522 1528 1534 1539 1545 1550 1556 1561 1566 1571 1574 1579 1583 1586 1589 1592 1595 1597 1599 1601 1604 1606 1607 1609 1612 1614 1615 1617 1618 1618 1619 1620 1621 1621 1622 1622 1622 1622 1622 1621 1621 1620 1619
1516 1524 1530 1535 1541 1546 1552 1556 1561 1565 1570 1575 1578 1582 1585 1588 1591 1594 1596 1598 1600 1601 1602 1604 1607 1609 1610 1612 1613 1615 1617 1617 1618 1619 1619 1619 1620 1620 1620 1620 1618 1618 1616
1511 1518 1523 1530 1537 1541 1546 1551 1555 1560 1566 1570 1573 1576 1580 1584 1586 1589 1591 1594 1595 1597 1598 1600 1602 1604 1606 1609 1609 1612 1613 1614 1615 1616 1616 1617 1618 1618 1617 1617 1617 1615 1614
1505 1509 1516 1523 1529 1535 1539 1544 1549 1553 1558 1563 1566 1570 1574 1579 1582 1584 1586 1588 1590 1592 1594 1595 1598 1600 1602 1604 1605 1608 1609 1611 1612 1613 1614 1614 1615 1615 1615 1614 1613 1612 1612
1500 1505 1510 1516 1521 1525 1531 1537 1542 1546 1550 1555 1560 1563 1565 1570 1575 1579 1582 1583 1584 1587 1590 1591 1593 1594 1598 1600 1602 1603 1605 1607 1608 1609 1610 1611 1611 1611 1611 1611 1611 1610 1608
1492 1496 1498 1504 1510 1508 1519 1534 1538 1535 1545 1547 1552 1555 1559 1562 1567 1572 1576 1578 1579 1582 1584 1586 1589 1590 1592 1595 1596 1598 1600 1602 1603 1605 1607 1608 1608 1608 1608 1608 1609 1608 1606
1485 1489 1495 1499 1504 1509 1514 1524 1525 1535 1539 1540 1549 1551 1552 1555 1558 1563 1567 1570 1573 1576 1580 1582 1584 1587 1588 1590 1593 1595 1595 1596 1600 1601 1603 1605 1604 1604 1605 1605 1606 1605 1604
1478 1484 1489 1494 1499 1504 1509 1514 1517 1524 1528 1533 1539 1541 1544 1550 1552 1554 1559 1561 1565 1568 1573 1576 1579 1582 1583 1585 1587 1590 1593 1593 1595 1598 1600 1601 1601 1601 1602 1602 1602 1602 1601
1471 1476 1481 1485 1491 1496 1500 1506 1510 1515 1519 1527 1531 1534 1538 1541 1546 1548 1550 1554 1558 1562 1566 1568 1572 1575 1580 1582 1585 1587 1589 1589 1592 1594 1596 1597 1598 1598 1598 1598 1598 1597 1596
1463 1469 1474 1478 1483 1488 1493 1498 1503 1507 1514 1519 1523 1527 1530 1534 1539 1541 1543 1545 1549 1553 1558 1563 1565 1568 1571 1576 1579 1583 1585 1587 1589 1591 1592 1593 1594 1595 1594 1594 1594 1593 1592
1455 1460 1466 1470 1476 1482 1486 1490 1494 1500 1507 1512 1515 1520 1524 1528 1530 1533 1536 1539 1543 1546 1551 1555 1558 1562 1565 1568 1574 1579 1581 1584 1585 1587 1589 1590 1591 1591 1591 1590 1589 1588 1587
1446 1452 1458 1463 1468 1473 1478 1483 1488 1493 1498 1503 1508 1512 1517 1521 1524 1529 1532 1534 1538 1543 1547 1551 1554 1557 1559 1563 1569 1573 1577 1580 1583 1583 1585 1586 1586 1587 1587 1585 1584 1583 1583
1438 1442 1449 1455 1460 1465 1470 1474 1480 1485 1489 1495 1500 1505 1510 1515 1519 1523 1526 1529 1533 1538 1542 1545 1548 1552 1555 1560 1563 1569 1573 1576 1579 1580 1581 1581 1581 1582 1582 1580 1579 1578 1578